Location: Armstrong
(40.9123°N, 82.0110°W)
Time: 08:01:34
(UTC+00:00)

H-2A R/B - Pass Details

Date: 29 October 2020
Orbit: 733 x 837 km, 98.2° (Epoch: 29 November)

Event Time Altitude Azimuth Distance (km) Brightness Sun altitude
Rises 22:58:58 0° 116° (ESE) 3,364 4.8 -6.7°
Reaches altitude 10° 23:02:15 10° 95° (E) 2,444 4.0 -7.3°
Maximum altitude 23:05:20 16° 60° (ENE) 2,085 3.7 -7.8°
Drops below altitude 10° 23:08:24 10° 26° (NNE) 2,459 4.3 -8.4°
Sets 23:11:43 0° 5° (N) 3,395 5.2 -9.0°
